Aérodrome :
LOGIN :

S'inscrire | Disclaimer

   EN    FR    IT 

 










Légende :    VFR   VFR Marginal   IFR   IFR Intensif   IFR Très Intensif
Visi : 
Plafond : 
>= 8 km
>= 3000ft
5 à 8 km
1000 à 3000 ft
1500m à 5 km
500 à 1000 ft
800 à 1500m
200 à 500 ft
< 800m
< 200 ft
Symboles :   Orages  Brouillard  Fortes neiges  Fortes précipitations  Vent > 20 kt
SIGMETs :   Divers  Orages  Givrage  Turbulence  Onde Orograph.  Cendres Volcan.







- Altitude de l'aérodrome : 1585 ft
- Code IATA : SIR


LSGS - Sion

DERNIER METAR :
  • 170950Z 07005KT 030V100 CAVOK 16/05 Q1019

METARs EXPIRÉS :
  • 170920Z 10007KT CAVOK 15/05 Q1019
  • 170850Z 07005KT 050V110 CAVOK 13/05 Q1020
  • 170820Z 07005KT CAVOK 13/05 Q1020
  • 170750Z 07005KT CAVOK 11/05 Q1020
  • 170720Z 11003KT CAVOK 09/05 Q1020

TAF TAF LSGS
Valide du 17 à 09h jusqu'au 17 à 18h UTC


170825Z 1709/1718 VRB03KT CAVOK
Pas de NOTAMs connus pour ce terrain.



MET'MAP, la Météo Aéronautique d'un coup d'oeil ! - Copyright ORBIFLY Décembre 2007 - Disclaimer

ORBIFLY MET'MAP TEAM :

Programmation & Développement : Alexandra Zaïnal
Conception & Développement : Baudouin d'Aumeries
Co-Programmation & Développement : Marc-Olivier Méhu
Soutien technique & logistique : Manuel Goepfert

Contact : metmap@orbifly.com




SOURCES & CREDITS :

   NOAA